Regional Weather Roundup
Issued by NWS Little Rock, AR

Home | Current Version | Previous Version | Graphics & Text | Print | Product List | Glossary On
Versions: 1 2 3 4 5 6 7 8 9 10 11 12 13 14 15 16 17 18 19 20 21 22 23 24 25 26 27 28 29 30 31
000
ASUS44 KLZK 170605
RWRLZK

WEATHER ROUNDUP FOR ARKANSAS
NATIONAL WEATHER SERVICE LITTLE ROCK AR
1200 AM CST FRI NOV 17 2017

NOTE: "FAIR" INDICATES FEW OR NO CLOUDS BELOW 12,000 FEET WITH NO
SIGNIFICANT WEATHER AND/OR OBSTRUCTIONS TO VISIBILITY.

ARZ001-003-010-029-170700-
NORTHWEST ARKANSAS

CITY           SKY/WX    TMP DP  RH WIND       PRES   REMARKS
FAYETTEVILLE   CLOUDY    56  52  86 S14       30.05S
6HR MIN TEMP:  50; 6HR MAX TEMP:  57;

FORT SMITH     CLOUDY    57  48  72 E10       30.06F
6HR MIN TEMP:  57; 6HR MAX TEMP:  60;

HARRISON       CLOUDY    51  43  74 SE13      30.08F
6HR MIN TEMP:  46; 6HR MAX TEMP:  54;

BENTONVILLE    MOCLDY    55  48  77 SE10      30.06F
6HR MIN TEMP:  54; 6HR MAX TEMP:  57;

ROGERS         CLOUDY    55  48  77 SE12      30.05S
6HR MIN TEMP:  54; 6HR MAX TEMP:  58;

SILOAM SPGS    CLOUDY    56  50  80 S14       30.04F
6HR MIN TEMP:  55; 6HR MAX TEMP:  58;

HIGHFILL       CLOUDY    55  49  80 S7        30.04F
6HR MIN TEMP:  53; 6HR MAX TEMP:  57;

$$

ARZ004-005-016-170700-
NORTH CENTRAL ARKANSAS

CITY           SKY/WX    TMP DP  RH WIND       PRES   REMARKS
BATESVILLE     MOCLDY    45  41  86 E5        30.15S
6HR MIN TEMP:  43; 6HR MAX TEMP:  51;

FLIPPIN        CLOUDY    49  40  71 E3        30.13S
6HR MIN TEMP:  45; 6HR MAX TEMP:  55;

MTN HOME       CLOUDY    47  40  76 S9        30.11S
6HR MIN TEMP:  47; 6HR MAX TEMP:  51;

$$

ARZ040-041-170700-
WEST CENTRAL ARKANSAS

CITY           SKY/WX    TMP DP  RH WIND       PRES   REMARKS
MENA           CLOUDY    59  55  88 E5        30.08S
MOUNT IDA      CLOUDY    58  51  78 VRB3      30.06F
6HR MIN TEMP:  57; 6HR MAX TEMP:  58;

$$

ARZ009-017-025-026-028-170700-
NORTHEAST ARKANSAS

CITY           SKY/WX    TMP DP  RH WIND       PRES   REMARKS
JONESBORO      CLEAR     42  38  85 NE7       30.16S
6HR MIN TEMP:  41; 6HR MAX TEMP:  49;

NEWPORT        CLEAR     42  39  89 CALM      30.16S
6HR MIN TEMP:  42; 6HR MAX TEMP:  50;

WALNUT RIDGE   FOG       39  36  89 NE6       30.16S VSB 1/4
6HR MIN TEMP:  38; 6HR MAX TEMP:  48;

BLYTHEVILLE    CLEAR     42  39  89 E8        30.16F
6HR MIN TEMP:  39; 6HR MAX TEMP:  44;

$$

ARZ022-023-033-042-044-170700-
CENTRAL ARKANSAS

CITY           SKY/WX    TMP DP  RH WIND       PRES   REMARKS
LITTLE ROCK    CLOUDY    56  51  84 E6        30.13R
6HR MIN TEMP:  55; 6HR MAX TEMP:  58;

N LITTLE ROCK    N/A     54  50  86 E6        30.14S
6HR MIN TEMP:  54; 6HR MAX TEMP:  57;

JACKSONVILLE   CLOUDY    55  47  75 E8        30.12R
6HR MIN TEMP:  50; 6HR MAX TEMP:  55;

HOT SPRINGS    CLOUDY    58  52  80 E6        30.10F
6HR MIN TEMP:  57; 6HR MAX TEMP:  58;

RUSSELLVILLE   CLOUDY    56  50  80 CALM      30.10S
6HR MIN TEMP:  55; 6HR MAX TEMP:  58;

CLINTON        CLOUDY    48  45  87 CALM      30.14S
$$

ARZ036-170700-
EAST ARKANSAS

CITY           SKY/WX    TMP DP  RH WIND       PRES   REMARKS
WEST MEMPHIS   CLEAR     44  43  96 CALM      30.13F
6HR MIN TEMP:  43; 6HR MAX TEMP:  52;

$$

ARZ050-053-066-070-073-170700-
SOUTHWEST ARKANSAS

CITY           SKY/WX    TMP DP  RH WIND       PRES   REMARKS
ARKADELPHIA    CLOUDY    57  52  83 CALM      30.11S
6HR MIN TEMP:  55; 6HR MAX TEMP:  59;

CAMDEN         CLOUDY    59  52  77 CALM      30.09F
TEXARKANA      CLOUDY    57  56  96 CALM      30.08S
6HR MIN TEMP:  55; 6HR MAX TEMP:  58;

EL DORADO      CLOUDY    58  56  93 E8        30.09F
6HR MIN TEMP:  57; 6HR MAX TEMP:  61;

DE QUEEN       CLOUDY    58  54  86 E6        30.06S
6HR MIN TEMP:  58; 6HR MAX TEMP:  58;

$$

ARZ056-057-069-170700-
SOUTHEAST ARKANSAS

CITY           SKY/WX    TMP DP  RH WIND       PRES   REMARKS
PINE BLUFF     CLOUDY    56  51  84 E5        30.12F
6HR MIN TEMP:  54; 6HR MAX TEMP:  57;

STUTTGART      CLOUDY    53  46  77 E10       30.12F
6HR MIN TEMP:  48; 6HR MAX TEMP:  56;

MONTICELLO     CLOUDY    56  53  90 E6        30.10F
6HR MIN TEMP:  53; 6HR MAX TEMP:  59;


$$






USA.gov is the U.S. government's official web portal to all federal, state and local government web resources and services.